sat.trackr.live / text

‹ back to catalog

AE5RB

NORAD 66693 · 2025-276AD

PAYLOAD ACTIVE UNKNOWN

§ Identity

Operator
Country
JPN
Launch date
2025-11-28
Launch site
AFWTR
Launch vehicle
Mass (kg)
RCS (m²)

External: N2YO · Heavens-Above · Gunter

§ Orbital elements

Epoch: 2026-05-25T03:25:50.176704Z

Period
94.61 min
Inclination
97.4178°
Eccentricity
0.0005651
Mean motion
15.21994590 rev/d
Perigee alt
495.9 km
Apogee alt
503.7 km
Semi-major
6,878.0 km
B*
4.2181e-4
RAAN
219.3388°
Arg perigee
100.4801°
Mean anomaly
259.7072°
Rev number
2,694

§ Raw data

AE5RB1 66693U 25276AD  26145.14294186  .00009569  00000+0  42181-3 0  99922 66693  97.4178 219.3388 0005651 100.4801 259.7072 15.21994590 26941

JSON: /api/v1/satellites/66693 · /tle

For live sub-satellite position, see the globe view (requires WebGL).

§ Visibility from observer

Set your observer location to see the next 7 days of passes ≥ 10°. The values pass through the URL so the page stays shareable.

No JS? Fill the form by hand. The geolocation button needs JavaScript.